User: anonymous   Login
Location: Unspecified
(0.0000°N, 0.0000°E)
Time: 17:43:43
(UTC+02:00)
Language:

CZ-4B DEB - Orbit

View from above orbital plane
View from above orbital plane
View from above satellite
View from above satellite

Ground track
Ground track

The orbit data is extracted from the following two-line orbital elements,

1 33411U 08053D   17176.13902251 +.00037510 +00000-0 +39923-3 0  9998
2 33411 097.4046 225.3040 0002057 233.6986 126.4083 15.63923412477414
Epoch (UTC): 25 June 2017 03:20:11
Eccentricity: 0.0002057
inclination: 97.4046°
perigee height: 375 km
apogee height: 378 km
right ascension of ascending node: 225.3040°
argument of perigee: 233.6986°
revolutions per day: 15.63923412
mean anomaly at epoch: 126.4083°
orbit number at epoch: 47741

The dashed part of the orbit path shows where the satellite is in the earth's shadow,  

DLR